Location: ?????????
(54.7630°N, 39.4991°E)
Time: 17:11:51
(UTC+00:00)

Spot 2 Rocket - Pass Details

Date: 14 April 2026
Orbit: 752 x 766 km, 98.3° (Epoch: 16 May)

Event Time Altitude Azimuth Distance (km) Brightness Sun altitude
Exits shadow 17:56:27 12° 163° (SSE) 2,170 5.4 -12.6°
Maximum altitude 18:01:12 89° 253° (WSW) 763 3.5 -13.1°
Drops below altitude 10° 18:06:16 10° 344° (NNW) 2,291 6.8 -13.7°
Sets 18:08:34 0° 345° (NNW) 3,219 7.7 -14.0°
